#datetime,building,power
2023-09-17T00:00:00,mfh,46.96
2023-09-17T00:01:00,mfh,46.31
2023-09-17T00:02:00,mfh,45.95
2023-09-17T00:03:00,mfh,48.53
2023-09-17T00:04:00,mfh,49.16
2023-09-17T00:05:00,mfh,49.67
2023-09-17T00:06:00,mfh,49.43
2023-09-17T00:07:00,mfh,49.40
2023-09-17T00:08:00,mfh,49.63
2023-09-17T00:09:00,mfh,49.49
2023-09-17T00:10:00,mfh,48.77
2023-09-17T00:11:00,mfh,46.34
2023-09-17T00:12:00,mfh,46.27
2023-09-17T00:13:00,mfh,46.74
2023-09-17T00:14:00,mfh,46.74
2023-09-17T00:15:00,mfh,39.20
2023-09-17T00:16:00,mfh,39.13
2023-09-17T00:17:00,mfh,36.27
2023-09-17T00:18:00,mfh,35.59
2023-09-17T00:19:00,mfh,35.57
2023-09-17T00:20:00,mfh,34.93
2023-09-17T00:21:00,mfh,35.08
2023-09-17T00:22:00,mfh,34.92
2023-09-17T00:23:00,mfh,35.00
2023-09-17T00:24:00,mfh,34.95
2023-09-17T00:25:00,mfh,36.10
2023-09-17T00:26:00,mfh,36.50
2023-09-17T00:27:00,mfh,34.41
2023-09-17T00:28:00,mfh,34.51
2023-09-17T00:29:00,mfh,34.33
2023-09-17T00:30:00,mfh,34.31
2023-09-17T00:31:00,mfh,34.70
2023-09-17T00:32:00,mfh,34.65
2023-09-17T00:33:00,mfh,34.70
2023-09-17T00:34:00,mfh,34.65
2023-09-17T00:35:00,mfh,34.81
2023-09-17T00:36:00,mfh,34.18
2023-09-17T00:37:00,mfh,35.03
2023-09-17T00:38:00,mfh,35.03
2023-09-17T00:39:00,mfh,35.15
2023-09-17T00:40:00,mfh,35.88
2023-09-17T00:41:00,mfh,36.54
2023-09-17T00:42:00,mfh,35.69
2023-09-17T00:43:00,mfh,34.70
2023-09-17T00:44:00,mfh,34.79
2023-09-17T00:45:00,mfh,34.27
2023-09-17T00:46:00,mfh,34.36
2023-09-17T00:47:00,mfh,34.18
2023-09-17T00:48:00,mfh,34.69
2023-09-17T00:49:00,mfh,36.70
2023-09-17T00:50:00,mfh,35.99
2023-09-17T00:51:00,mfh,35.93
2023-09-17T00:52:00,mfh,35.93
2023-09-17T00:53:00,mfh,34.71
2023-09-17T00:54:00,mfh,34.41
2023-09-17T00:55:00,mfh,33.95
2023-09-17T00:56:00,mfh,33.95
2023-09-17T00:57:00,mfh,35.89
2023-09-17T00:58:00,mfh,35.86
2023-09-17T00:59:00,mfh,34.72
2023-09-17T01:00:00,mfh,34.74
2023-09-17T01:01:00,mfh,34.62
2023-09-17T01:02:00,mfh,34.06
2023-09-17T01:03:00,mfh,34.92
2023-09-17T01:04:00,mfh,35.56
2023-09-17T01:05:00,mfh,35.26
2023-09-17T01:06:00,mfh,35.62
2023-09-17T01:07:00,mfh,34.57
2023-09-17T01:08:00,mfh,34.51
2023-09-17T01:09:00,mfh,34.78
2023-09-17T01:10:00,mfh,34.83
2023-09-17T01:11:00,mfh,34.00
2023-09-17T01:12:00,mfh,34.73
2023-09-17T01:13:00,mfh,35.61
2023-09-17T01:14:00,mfh,35.25
2023-09-17T01:15:00,mfh,35.60
2023-09-17T01:16:00,mfh,35.63
2023-09-17T01:17:00,mfh,35.80
2023-09-17T01:18:00,mfh,35.49
2023-09-17T01:19:00,mfh,34.85
2023-09-17T01:20:00,mfh,35.09
2023-09-17T01:21:00,mfh,34.18
2023-09-17T01:22:00,mfh,34.01
2023-09-17T01:23:00,mfh,35.17
2023-09-17T01:24:00,mfh,34.71
2023-09-17T01:25:00,mfh,35.29
2023-09-17T01:26:00,mfh,34.56
2023-09-17T01:27:00,mfh,35.18
2023-09-17T01:28:00,mfh,33.88
2023-09-17T01:29:00,mfh,33.98
2023-09-17T01:30:00,mfh,35.07
2023-09-17T01:31:00,mfh,35.71
2023-09-17T01:32:00,mfh,34.91
2023-09-17T01:33:00,mfh,35.36
2023-09-17T01:34:00,mfh,35.82
2023-09-17T01:35:00,mfh,36.49
2023-09-17T01:36:00,mfh,35.01
2023-09-17T01:37:00,mfh,35.79
2023-09-17T01:38:00,mfh,35.28
2023-09-17T01:39:00,mfh,34.01
2023-09-17T01:40:00,mfh,34.55
2023-09-17T01:41:00,mfh,34.42
2023-09-17T01:42:00,mfh,34.46
2023-09-17T01:43:00,mfh,34.45
2023-09-17T01:44:00,mfh,34.61
2023-09-17T01:45:00,mfh,33.85
2023-09-17T01:46:00,mfh,34.88
2023-09-17T01:47:00,mfh,35.00
2023-09-17T01:48:00,mfh,34.86
2023-09-17T01:49:00,mfh,35.64
2023-09-17T01:50:00,mfh,36.04
2023-09-17T01:51:00,mfh,36.08
2023-09-17T01:52:00,mfh,36.12
2023-09-17T01:53:00,mfh,33.84
2023-09-17T01:54:00,mfh,33.98
2023-09-17T01:55:00,mfh,34.12
2023-09-17T01:56:00,mfh,35.06
2023-09-17T01:57:00,mfh,35.85
2023-09-17T01:58:00,mfh,35.97
2023-09-17T01:59:00,mfh,36.11
2023-09-17T02:00:00,mfh,34.46
2023-09-17T02:01:00,mfh,34.51
2023-09-17T02:02:00,mfh,34.81
2023-09-17T02:03:00,mfh,35.94
2023-09-17T02:04:00,mfh,35.03
2023-09-17T02:05:00,mfh,34.16
2023-09-17T02:06:00,mfh,34.65
2023-09-17T02:07:00,mfh,34.67
2023-09-17T02:08:00,mfh,33.95
2023-09-17T02:09:00,mfh,33.99
2023-09-17T02:10:00,mfh,33.84
2023-09-17T02:11:00,mfh,34.19
2023-09-17T02:12:00,mfh,33.91
2023-09-17T02:13:00,mfh,33.80
2023-09-17T02:14:00,mfh,33.82
2023-09-17T02:15:00,mfh,35.33
2023-09-17T02:16:00,mfh,35.10
2023-09-17T02:17:00,mfh,35.11
2023-09-17T02:18:00,mfh,36.38
2023-09-17T02:19:00,mfh,36.54
2023-09-17T02:20:00,mfh,34.81
2023-09-17T02:21:00,mfh,34.62
2023-09-17T02:22:00,mfh,34.55
2023-09-17T02:23:00,mfh,34.98
2023-09-17T02:24:00,mfh,34.51
2023-09-17T02:25:00,mfh,34.54
2023-09-17T02:26:00,mfh,34.58
2023-09-17T02:27:00,mfh,34.52
2023-09-17T02:28:00,mfh,33.85
2023-09-17T02:29:00,mfh,33.89
2023-09-17T02:30:00,mfh,33.93
2023-09-17T02:31:00,mfh,33.76
2023-09-17T02:32:00,mfh,34.25
2023-09-17T02:33:00,mfh,35.24
2023-09-17T02:34:00,mfh,36.88
2023-09-17T02:35:00,mfh,35.58
2023-09-17T02:36:00,mfh,35.49
2023-09-17T02:37:00,mfh,34.39
2023-09-17T02:38:00,mfh,34.87
2023-09-17T02:39:00,mfh,34.90
2023-09-17T02:40:00,mfh,35.16
2023-09-17T02:41:00,mfh,35.96
2023-09-17T02:42:00,mfh,35.39
2023-09-17T02:43:00,mfh,33.96
2023-09-17T02:44:00,mfh,34.21
2023-09-17T02:45:00,mfh,34.06
2023-09-17T02:46:00,mfh,34.25
2023-09-17T02:47:00,mfh,34.55
2023-09-17T02:48:00,mfh,34.78
2023-09-17T02:49:00,mfh,34.95
2023-09-17T02:50:00,mfh,36.66
2023-09-17T02:51:00,mfh,35.24
2023-09-17T02:52:00,mfh,35.23
2023-09-17T02:53:00,mfh,34.20
2023-09-17T02:54:00,mfh,34.80
2023-09-17T02:55:00,mfh,34.64
2023-09-17T02:56:00,mfh,34.43
2023-09-17T02:57:00,mfh,36.02
2023-09-17T02:58:00,mfh,36.27
2023-09-17T02:59:00,mfh,34.75
2023-09-17T03:00:00,mfh,34.69
2023-09-17T03:01:00,mfh,34.95
2023-09-17T03:02:00,mfh,34.32
2023-09-17T03:03:00,mfh,33.80
2023-09-17T03:04:00,mfh,33.74
2023-09-17T03:05:00,mfh,33.70
2023-09-17T03:06:00,mfh,34.24
2023-09-17T03:07:00,mfh,35.16
2023-09-17T03:08:00,mfh,35.90
2023-09-17T03:09:00,mfh,34.42
2023-09-17T03:10:00,mfh,35.93
2023-09-17T03:11:00,mfh,34.46
2023-09-17T03:12:00,mfh,34.28
2023-09-17T03:13:00,mfh,34.54
2023-09-17T03:14:00,mfh,34.37
2023-09-17T03:15:00,mfh,35.14
2023-09-17T03:16:00,mfh,35.04
2023-09-17T03:17:00,mfh,34.78
2023-09-17T03:18:00,mfh,35.08
2023-09-17T03:19:00,mfh,35.18
2023-09-17T03:20:00,mfh,34.07
2023-09-17T03:21:00,mfh,34.62
2023-09-17T03:22:00,mfh,34.06
2023-09-17T03:23:00,mfh,34.93
2023-09-17T03:24:00,mfh,34.94
2023-09-17T03:25:00,mfh,34.55
2023-09-17T03:26:00,mfh,34.81
2023-09-17T03:27:00,mfh,34.06
2023-09-17T03:28:00,mfh,33.86
2023-09-17T03:29:00,mfh,33.95
2023-09-17T03:30:00,mfh,34.50
2023-09-17T03:31:00,mfh,34.70
2023-09-17T03:32:00,mfh,34.07
2023-09-17T03:33:00,mfh,34.00
2023-09-17T03:34:00,mfh,34.07
2023-09-17T03:35:00,mfh,34.05
2023-09-17T03:36:00,mfh,34.00
2023-09-17T03:37:00,mfh,33.60
2023-09-17T03:38:00,mfh,34.44
2023-09-17T03:39:00,mfh,34.50
2023-09-17T03:40:00,mfh,34.29
2023-09-17T03:41:00,mfh,34.45
2023-09-17T03:42:00,mfh,35.09
2023-09-17T03:43:00,mfh,34.80
2023-09-17T03:44:00,mfh,35.02
2023-09-17T03:45:00,mfh,35.37
2023-09-17T03:46:00,mfh,34.48
2023-09-17T03:47:00,mfh,34.64
2023-09-17T03:48:00,mfh,33.29
2023-09-17T03:49:00,mfh,33.49
2023-09-17T03:50:00,mfh,33.94
2023-09-17T03:51:00,mfh,35.51
2023-09-17T03:52:00,mfh,35.29
2023-09-17T03:53:00,mfh,35.38
2023-09-17T03:54:00,mfh,35.84
2023-09-17T03:55:00,mfh,36.66
2023-09-17T03:56:00,mfh,34.24
2023-09-17T03:57:00,mfh,33.18
2023-09-17T03:58:00,mfh,33.80
2023-09-17T03:59:00,mfh,34.89
2023-09-17T04:00:00,mfh,35.24
2023-09-17T04:01:00,mfh,35.64
2023-09-17T04:02:00,mfh,36.23
2023-09-17T04:03:00,mfh,33.96
2023-09-17T04:04:00,mfh,33.46
2023-09-17T04:05:00,mfh,33.57
2023-09-17T04:06:00,mfh,33.37
2023-09-17T04:07:00,mfh,33.87
2023-09-17T04:08:00,mfh,33.77
2023-09-17T04:09:00,mfh,33.79
2023-09-17T04:10:00,mfh,34.73
2023-09-17T04:11:00,mfh,34.87
2023-09-17T04:12:00,mfh,34.25
2023-09-17T04:13:00,mfh,33.24
2023-09-17T04:14:00,mfh,33.49
2023-09-17T04:15:00,mfh,33.30
2023-09-17T04:16:00,mfh,34.63
2023-09-17T04:17:00,mfh,34.03
2023-09-17T04:18:00,mfh,34.14
2023-09-17T04:19:00,mfh,34.18
2023-09-17T04:20:00,mfh,33.41
2023-09-17T04:21:00,mfh,33.34
2023-09-17T04:22:00,mfh,33.26
2023-09-17T04:23:00,mfh,33.25
2023-09-17T04:24:00,mfh,34.00
2023-09-17T04:25:00,mfh,34.00
2023-09-17T04:26:00,mfh,34.82
2023-09-17T04:27:00,mfh,36.02
2023-09-17T04:28:00,mfh,34.98
2023-09-17T04:29:00,mfh,33.33
2023-09-17T04:30:00,mfh,33.23
2023-09-17T04:31:00,mfh,33.49
2023-09-17T04:32:00,mfh,34.17
2023-09-17T04:33:00,mfh,33.94
2023-09-17T04:34:00,mfh,34.56
2023-09-17T04:35:00,mfh,34.00
2023-09-17T04:36:00,mfh,35.11
2023-09-17T04:37:00,mfh,35.17
2023-09-17T04:38:00,mfh,35.20
2023-09-17T04:39:00,mfh,35.23
2023-09-17T04:40:00,mfh,33.20
2023-09-17T04:41:00,mfh,33.27
2023-09-17T04:42:00,mfh,33.97
2023-09-17T04:43:00,mfh,36.15
2023-09-17T04:44:00,mfh,37.11
2023-09-17T04:45:00,mfh,35.52
2023-09-17T04:46:00,mfh,34.92
2023-09-17T04:47:00,mfh,35.14
2023-09-17T04:48:00,mfh,33.52
2023-09-17T04:49:00,mfh,33.43
2023-09-17T04:50:00,mfh,35.30
2023-09-17T04:51:00,mfh,35.45
2023-09-17T04:52:00,mfh,35.87
2023-09-17T04:53:00,mfh,35.62
2023-09-17T04:54:00,mfh,34.48
2023-09-17T04:55:00,mfh,34.24
2023-09-17T04:56:00,mfh,34.18
2023-09-17T04:57:00,mfh,33.37
2023-09-17T04:58:00,mfh,34.45
2023-09-17T04:59:00,mfh,35.03
2023-09-17T05:00:00,mfh,34.99
2023-09-17T05:01:00,mfh,53.27
2023-09-17T05:02:00,mfh,54.60
2023-09-17T05:03:00,mfh,55.24
2023-09-17T05:04:00,mfh,54.98
2023-09-17T05:05:00,mfh,55.08
2023-09-17T05:06:00,mfh,55.21
2023-09-17T05:07:00,mfh,55.24
2023-09-17T05:08:00,mfh,55.34
2023-09-17T05:09:00,mfh,55.12
2023-09-17T05:10:00,mfh,55.26
2023-09-17T05:11:00,mfh,55.23
2023-09-17T05:12:00,mfh,54.53
2023-09-17T05:13:00,mfh,54.38
2023-09-17T05:14:00,mfh,54.46
2023-09-17T05:15:00,mfh,55.31
2023-09-17T05:16:00,mfh,55.96
2023-09-17T05:17:00,mfh,55.79
2023-09-17T05:18:00,mfh,54.99
2023-09-17T05:19:00,mfh,55.02
2023-09-17T05:20:00,mfh,55.05
2023-09-17T05:21:00,mfh,53.76
2023-09-17T05:22:00,mfh,53.52
2023-09-17T05:23:00,mfh,53.79
2023-09-17T05:24:00,mfh,53.36
2023-09-17T05:25:00,mfh,54.14
2023-09-17T05:26:00,mfh,54.10
2023-09-17T05:27:00,mfh,53.92
2023-09-17T05:28:00,mfh,54.32
2023-09-17T05:29:00,mfh,55.16
2023-09-17T05:30:00,mfh,53.78
2023-09-17T05:31:00,mfh,55.34
2023-09-17T05:32:00,mfh,54.94
2023-09-17T05:33:00,mfh,54.82
2023-09-17T05:34:00,mfh,54.98
2023-09-17T05:35:00,mfh,54.83
2023-09-17T05:36:00,mfh,55.00
2023-09-17T05:37:00,mfh,55.54
2023-09-17T05:38:00,mfh,54.13
2023-09-17T05:39:00,mfh,54.27
2023-09-17T05:40:00,mfh,54.24
2023-09-17T05:41:00,mfh,54.29
2023-09-17T05:42:00,mfh,55.08
2023-09-17T05:43:00,mfh,55.00
2023-09-17T05:44:00,mfh,54.94
2023-09-17T05:45:00,mfh,56.22
2023-09-17T05:46:00,mfh,55.31
2023-09-17T05:47:00,mfh,55.17
2023-09-17T05:48:00,mfh,55.26
2023-09-17T05:49:00,mfh,54.08
2023-09-17T05:50:00,mfh,54.10
2023-09-17T05:51:00,mfh,54.59
2023-09-17T05:52:00,mfh,54.64
2023-09-17T05:53:00,mfh,54.83
2023-09-17T05:54:00,mfh,54.74
2023-09-17T05:55:00,mfh,54.00
2023-09-17T05:56:00,mfh,54.09
2023-09-17T05:57:00,mfh,54.65
2023-09-17T05:58:00,mfh,54.54
2023-09-17T05:59:00,mfh,55.15
2023-09-17T06:00:00,mfh,55.05
2023-09-17T06:01:00,mfh,55.09
2023-09-17T06:02:00,mfh,54.98
2023-09-17T06:03:00,mfh,55.92
2023-09-17T06:04:00,mfh,55.20
2023-09-17T06:05:00,mfh,56.05
2023-09-17T06:06:00,mfh,56.07
2023-09-17T06:07:00,mfh,55.84
2023-09-17T06:08:00,mfh,56.38
2023-09-17T06:09:00,mfh,56.52
2023-09-17T06:10:00,mfh,56.55
2023-09-17T06:11:00,mfh,56.43
2023-09-17T06:12:00,mfh,54.70
2023-09-17T06:13:00,mfh,54.62
2023-09-17T06:14:00,mfh,54.80
2023-09-17T06:15:00,mfh,54.95
2023-09-17T06:16:00,mfh,55.04
2023-09-17T06:17:00,mfh,55.89
2023-09-17T06:18:00,mfh,55.51
2023-09-17T06:19:00,mfh,55.64
2023-09-17T06:20:00,mfh,56.31
2023-09-17T06:21:00,mfh,54.48
2023-09-17T06:22:00,mfh,54.52
2023-09-17T06:23:00,mfh,54.31
2023-09-17T06:24:00,mfh,54.33
2023-09-17T06:25:00,mfh,55.11
2023-09-17T06:26:00,mfh,54.64
2023-09-17T06:27:00,mfh,54.58
2023-09-17T06:28:00,mfh,54.36
2023-09-17T06:29:00,mfh,54.41
2023-09-17T06:30:00,mfh,54.16
2023-09-17T06:31:00,mfh,54.43
2023-09-17T06:32:00,mfh,54.51
2023-09-17T06:33:00,mfh,54.94
2023-09-17T06:34:00,mfh,54.64
2023-09-17T06:35:00,mfh,55.42
2023-09-17T06:36:00,mfh,55.42
2023-09-17T06:37:00,mfh,55.36
2023-09-17T06:38:00,mfh,53.65
2023-09-17T06:39:00,mfh,53.66
2023-09-17T06:40:00,mfh,53.56
2023-09-17T06:41:00,mfh,53.50
2023-09-17T06:42:00,mfh,54.25
2023-09-17T06:43:00,mfh,54.24
2023-09-17T06:44:00,mfh,55.11
2023-09-17T06:45:00,mfh,54.40
2023-09-17T06:46:00,mfh,55.36
2023-09-17T06:47:00,mfh,53.73
2023-09-17T06:48:00,mfh,53.89
2023-09-17T06:49:00,mfh,53.92
2023-09-17T06:50:00,mfh,55.26
2023-09-17T06:51:00,mfh,55.50
2023-09-17T06:52:00,mfh,55.43
2023-09-17T06:53:00,mfh,55.32
2023-09-17T06:54:00,mfh,54.41
2023-09-17T06:55:00,mfh,54.29
2023-09-17T06:56:00,mfh,53.79
2023-09-17T06:57:00,mfh,53.65
2023-09-17T06:58:00,mfh,53.97
2023-09-17T06:59:00,mfh,54.63
2023-09-17T07:00:00,mfh,54.51
2023-09-17T07:01:00,mfh,54.68
2023-09-17T07:02:00,mfh,54.43
2023-09-17T07:03:00,mfh,54.47
2023-09-17T07:04:00,mfh,54.82
2023-09-17T07:05:00,mfh,54.27
2023-09-17T07:06:00,mfh,54.61
2023-09-17T07:07:00,mfh,55.15
2023-09-17T07:08:00,mfh,56.57
2023-09-17T07:09:00,mfh,55.94
2023-09-17T07:10:00,mfh,56.12
2023-09-17T07:11:00,mfh,55.18
2023-09-17T07:12:00,mfh,54.94
2023-09-17T07:13:00,mfh,54.51
2023-09-17T07:14:00,mfh,54.63
2023-09-17T07:15:00,mfh,54.57
2023-09-17T07:16:00,mfh,55.08
2023-09-17T07:17:00,mfh,55.29
2023-09-17T07:18:00,mfh,55.36
2023-09-17T07:19:00,mfh,55.33
2023-09-17T07:20:00,mfh,54.51
2023-09-17T07:21:00,mfh,54.58
2023-09-17T07:22:00,mfh,54.45
2023-09-17T07:23:00,mfh,55.23
2023-09-17T07:24:00,mfh,55.95
2023-09-17T07:25:00,mfh,55.91
2023-09-17T07:26:00,mfh,56.11
2023-09-17T07:27:00,mfh,55.19
2023-09-17T07:28:00,mfh,55.50
2023-09-17T07:29:00,mfh,54.76
2023-09-17T07:30:00,mfh,55.01
2023-09-17T07:31:00,mfh,57.09
2023-09-17T07:32:00,mfh,55.70
2023-09-17T07:33:00,mfh,56.20
2023-09-17T07:34:00,mfh,55.95
2023-09-17T07:35:00,mfh,56.33
2023-09-17T07:36:00,mfh,56.18
2023-09-17T07:37:00,mfh,56.25
2023-09-17T07:38:00,mfh,55.56
2023-09-17T07:39:00,mfh,56.96
2023-09-17T07:40:00,mfh,55.30
2023-09-17T07:41:00,mfh,56.87
2023-09-17T07:42:00,mfh,56.89
2023-09-17T07:43:00,mfh,56.47
2023-09-17T07:44:00,mfh,56.41
2023-09-17T07:45:00,mfh,57.14
2023-09-17T07:46:00,mfh,55.51
2023-09-17T07:47:00,mfh,55.97
2023-09-17T07:48:00,mfh,55.10
2023-09-17T07:49:00,mfh,55.14
2023-09-17T07:50:00,mfh,55.90
2023-09-17T07:51:00,mfh,56.05
2023-09-17T07:52:00,mfh,56.06
2023-09-17T07:53:00,mfh,60.38
2023-09-17T07:54:00,mfh,60.36
2023-09-17T07:55:00,mfh,59.66
2023-09-17T07:56:00,mfh,60.59
2023-09-17T07:57:00,mfh,62.15
2023-09-17T07:58:00,mfh,61.38
2023-09-17T07:59:00,mfh,62.10
2023-09-17T08:00:00,mfh,62.17
2023-09-17T08:01:00,mfh,60.98
2023-09-17T08:02:00,mfh,60.95
2023-09-17T08:03:00,mfh,60.94
2023-09-17T08:04:00,mfh,61.77
2023-09-17T08:05:00,mfh,60.71
2023-09-17T08:06:00,mfh,60.59
2023-09-17T08:07:00,mfh,62.24
2023-09-17T08:08:00,mfh,61.88
2023-09-17T08:09:00,mfh,60.97
2023-09-17T08:10:00,mfh,60.96
2023-09-17T08:11:00,mfh,60.84
2023-09-17T08:12:00,mfh,61.20
2023-09-17T08:13:00,mfh,61.29
2023-09-17T08:14:00,mfh,60.71
2023-09-17T08:15:00,mfh,59.96
2023-09-17T08:16:00,mfh,61.20
2023-09-17T08:17:00,mfh,61.53
2023-09-17T08:18:00,mfh,61.13
2023-09-17T08:19:00,mfh,62.07
2023-09-17T08:20:00,mfh,68.24
2023-09-17T08:21:00,mfh,67.97
2023-09-17T08:22:00,mfh,68.03
2023-09-17T08:23:00,mfh,68.10
2023-09-17T08:24:00,mfh,68.93
2023-09-17T08:25:00,mfh,70.79
2023-09-17T08:26:00,mfh,72.38
2023-09-17T08:27:00,mfh,71.14
2023-09-17T08:28:00,mfh,71.08
2023-09-17T08:29:00,mfh,69.59
2023-09-17T08:30:00,mfh,69.32
2023-09-17T08:31:00,mfh,73.88
2023-09-17T08:32:00,mfh,74.44
2023-09-17T08:33:00,mfh,74.25
2023-09-17T08:34:00,mfh,74.35
2023-09-17T08:35:00,mfh,74.38
2023-09-17T08:36:00,mfh,74.52
2023-09-17T08:37:00,mfh,75.16
2023-09-17T08:38:00,mfh,74.47
2023-09-17T08:39:00,mfh,74.45
2023-09-17T08:40:00,mfh,73.52
2023-09-17T08:41:00,mfh,74.56
2023-09-17T08:42:00,mfh,75.70
2023-09-17T08:43:00,mfh,75.13
2023-09-17T08:44:00,mfh,73.94
2023-09-17T08:45:00,mfh,74.91
2023-09-17T08:46:00,mfh,75.61
2023-09-17T08:47:00,mfh,74.82
2023-09-17T08:48:00,mfh,74.98
2023-09-17T08:49:00,mfh,74.82
2023-09-17T08:50:00,mfh,76.06
2023-09-17T08:51:00,mfh,75.04
2023-09-17T08:52:00,mfh,74.51
2023-09-17T08:53:00,mfh,74.41
2023-09-17T08:54:00,mfh,74.96
2023-09-17T08:55:00,mfh,74.94
2023-09-17T08:56:00,mfh,74.99
2023-09-17T08:57:00,mfh,76.00
2023-09-17T08:58:00,mfh,82.29
2023-09-17T08:59:00,mfh,81.99
2023-09-17T09:00:00,mfh,81.96
2023-09-17T09:01:00,mfh,81.54
2023-09-17T09:02:00,mfh,82.08
2023-09-17T09:03:00,mfh,82.02
2023-09-17T09:04:00,mfh,82.27
2023-09-17T09:05:00,mfh,82.46
2023-09-17T09:06:00,mfh,82.80
2023-09-17T09:07:00,mfh,82.35
2023-09-17T09:08:00,mfh,82.51
2023-09-17T09:09:00,mfh,82.42
2023-09-17T09:10:00,mfh,82.79
2023-09-17T09:11:00,mfh,82.45
2023-09-17T09:12:00,mfh,83.57
2023-09-17T09:13:00,mfh,83.04
2023-09-17T09:14:00,mfh,82.99
2023-09-17T09:15:00,mfh,82.08
2023-09-17T09:16:00,mfh,82.26
2023-09-17T09:17:00,mfh,82.52
2023-09-17T09:18:00,mfh,81.58
2023-09-17T09:19:00,mfh,81.74
2023-09-17T09:20:00,mfh,81.82
2023-09-17T09:21:00,mfh,81.00
2023-09-17T09:22:00,mfh,80.97
2023-09-17T09:23:00,mfh,81.68
2023-09-17T09:24:00,mfh,81.33
2023-09-17T09:25:00,mfh,81.32
2023-09-17T09:26:00,mfh,81.13
2023-09-17T09:27:00,mfh,81.69
2023-09-17T09:28:00,mfh,81.77
2023-09-17T09:29:00,mfh,82.22
2023-09-17T09:30:00,mfh,81.42
2023-09-17T09:31:00,mfh,81.38
2023-09-17T09:32:00,mfh,81.31
2023-09-17T09:33:00,mfh,82.23
2023-09-17T09:34:00,mfh,80.90
2023-09-17T09:35:00,mfh,81.52
2023-09-17T09:36:00,mfh,80.58
2023-09-17T09:37:00,mfh,81.77
2023-09-17T09:38:00,mfh,81.69
2023-09-17T09:39:00,mfh,82.09
2023-09-17T09:40:00,mfh,81.85
2023-09-17T09:41:00,mfh,82.72
2023-09-17T09:42:00,mfh,82.17
2023-09-17T09:43:00,mfh,82.76
2023-09-17T09:44:00,mfh,81.39
2023-09-17T09:45:00,mfh,81.25
2023-09-17T09:46:00,mfh,81.06
2023-09-17T09:47:00,mfh,81.08
2023-09-17T09:48:00,mfh,81.37
2023-09-17T09:49:00,mfh,81.36
2023-09-17T09:50:00,mfh,81.94
2023-09-17T09:51:00,mfh,81.33
2023-09-17T09:52:00,mfh,81.71
2023-09-17T09:53:00,mfh,81.12
2023-09-17T09:54:00,mfh,80.95
2023-09-17T09:55:00,mfh,80.51
2023-09-17T09:56:00,mfh,80.91
2023-09-17T09:57:00,mfh,81.89
2023-09-17T09:58:00,mfh,82.66
2023-09-17T09:59:00,mfh,81.63
2023-09-17T10:00:00,mfh,80.67
2023-09-17T10:01:00,mfh,80.90
2023-09-17T10:02:00,mfh,80.87
2023-09-17T10:03:00,mfh,81.21
2023-09-17T10:04:00,mfh,81.08
2023-09-17T10:05:00,mfh,81.14
2023-09-17T10:06:00,mfh,80.62
2023-09-17T10:07:00,mfh,80.67
2023-09-17T10:08:00,mfh,81.18
2023-09-17T10:09:00,mfh,81.20
2023-09-17T10:10:00,mfh,82.08
2023-09-17T10:11:00,mfh,82.04
2023-09-17T10:12:00,mfh,82.70
2023-09-17T10:13:00,mfh,82.68
2023-09-17T10:14:00,mfh,82.56
2023-09-17T10:15:00,mfh,81.23
2023-09-17T10:16:00,mfh,80.91
2023-09-17T10:17:00,mfh,80.50
2023-09-17T10:18:00,mfh,81.03
2023-09-17T10:19:00,mfh,80.63
2023-09-17T10:20:00,mfh,81.23
2023-09-17T10:21:00,mfh,81.12
2023-09-17T10:22:00,mfh,81.21
2023-09-17T10:23:00,mfh,81.20
2023-09-17T10:24:00,mfh,81.94
2023-09-17T10:25:00,mfh,81.79
2023-09-17T10:26:00,mfh,81.81
2023-09-17T10:27:00,mfh,81.78
2023-09-17T10:28:00,mfh,82.05
2023-09-17T10:29:00,mfh,81.23
2023-09-17T10:30:00,mfh,81.01
2023-09-17T10:31:00,mfh,80.92
2023-09-17T10:32:00,mfh,80.94
2023-09-17T10:33:00,mfh,81.11
2023-09-17T10:34:00,mfh,81.60
2023-09-17T10:35:00,mfh,81.44
2023-09-17T10:36:00,mfh,82.63
2023-09-17T10:37:00,mfh,82.29
2023-09-17T10:38:00,mfh,81.98
2023-09-17T10:39:00,mfh,82.08
2023-09-17T10:40:00,mfh,82.13
2023-09-17T10:41:00,mfh,81.81
2023-09-17T10:42:00,mfh,81.34
2023-09-17T10:43:00,mfh,82.51
2023-09-17T10:44:00,mfh,82.18
2023-09-17T10:45:00,mfh,82.78
2023-09-17T10:46:00,mfh,82.23
2023-09-17T10:47:00,mfh,82.41
2023-09-17T10:48:00,mfh,82.47
2023-09-17T10:49:00,mfh,82.17
2023-09-17T10:50:00,mfh,81.07
2023-09-17T10:51:00,mfh,81.47
2023-09-17T10:52:00,mfh,82.35
2023-09-17T10:53:00,mfh,82.49
2023-09-17T10:54:00,mfh,82.41
2023-09-17T10:55:00,mfh,82.57
2023-09-17T10:56:00,mfh,82.64
2023-09-17T10:57:00,mfh,82.36
2023-09-17T10:58:00,mfh,81.17
2023-09-17T10:59:00,mfh,81.67
2023-09-17T11:00:00,mfh,81.47
2023-09-17T11:01:00,mfh,81.17
2023-09-17T11:02:00,mfh,81.33
2023-09-17T11:03:00,mfh,81.30
2023-09-17T11:04:00,mfh,81.59
2023-09-17T11:05:00,mfh,81.09
2023-09-17T11:06:00,mfh,80.42
2023-09-17T11:07:00,mfh,80.61
2023-09-17T11:08:00,mfh,80.68
2023-09-17T11:09:00,mfh,80.97
2023-09-17T11:10:00,mfh,80.61
2023-09-17T11:11:00,mfh,80.38
2023-09-17T11:12:00,mfh,81.18
2023-09-17T11:13:00,mfh,81.56
2023-09-17T11:14:00,mfh,82.77
2023-09-17T11:15:00,mfh,82.24
2023-09-17T11:16:00,mfh,82.32
2023-09-17T11:17:00,mfh,81.38
2023-09-17T11:18:00,mfh,80.67
2023-09-17T11:19:00,mfh,80.65
2023-09-17T11:20:00,mfh,80.63
2023-09-17T11:21:00,mfh,81.06
2023-09-17T11:22:00,mfh,80.68
2023-09-17T11:23:00,mfh,81.04
2023-09-17T11:24:00,mfh,81.68
2023-09-17T11:25:00,mfh,82.24
2023-09-17T11:26:00,mfh,81.44
2023-09-17T11:27:00,mfh,81.49
2023-09-17T11:28:00,mfh,81.75
2023-09-17T11:29:00,mfh,80.62
2023-09-17T11:30:00,mfh,81.84
2023-09-17T11:31:00,mfh,81.45
2023-09-17T11:32:00,mfh,81.00
2023-09-17T11:33:00,mfh,80.05
2023-09-17T11:34:00,mfh,81.01
2023-09-17T11:35:00,mfh,81.74
2023-09-17T11:36:00,mfh,81.15
2023-09-17T11:37:00,mfh,81.15
2023-09-17T11:38:00,mfh,80.97
2023-09-17T11:39:00,mfh,80.27
2023-09-17T11:40:00,mfh,80.29
2023-09-17T11:41:00,mfh,80.56
2023-09-17T11:42:00,mfh,79.85
2023-09-17T11:43:00,mfh,80.16
2023-09-17T11:44:00,mfh,80.64
2023-09-17T11:45:00,mfh,80.89
2023-09-17T11:46:00,mfh,81.57
2023-09-17T11:47:00,mfh,82.17
2023-09-17T11:48:00,mfh,81.62
2023-09-17T11:49:00,mfh,79.77
2023-09-17T11:50:00,mfh,80.09
2023-09-17T11:51:00,mfh,79.74
2023-09-17T11:52:00,mfh,80.68
2023-09-17T11:53:00,mfh,79.46
2023-09-17T11:54:00,mfh,80.27
2023-09-17T11:55:00,mfh,80.31
2023-09-17T11:56:00,mfh,80.81
2023-09-17T11:57:00,mfh,80.87
2023-09-17T11:58:00,mfh,81.29
2023-09-17T11:59:00,mfh,80.36
2023-09-17T12:00:00,mfh,80.34
2023-09-17T12:01:00,mfh,80.07
2023-09-17T12:02:00,mfh,79.89
2023-09-17T12:03:00,mfh,80.90
2023-09-17T12:04:00,mfh,81.54
2023-09-17T12:05:00,mfh,79.96
2023-09-17T12:06:00,mfh,80.44
2023-09-17T12:07:00,mfh,81.31
2023-09-17T12:08:00,mfh,80.74
2023-09-17T12:09:00,mfh,80.61
2023-09-17T12:10:00,mfh,81.07
2023-09-17T12:11:00,mfh,81.35
2023-09-17T12:12:00,mfh,81.58
2023-09-17T12:13:00,mfh,81.57
2023-09-17T12:14:00,mfh,81.80
2023-09-17T12:15:00,mfh,81.55
2023-09-17T12:16:00,mfh,81.52
2023-09-17T12:17:00,mfh,81.14
2023-09-17T12:18:00,mfh,81.63
2023-09-17T12:19:00,mfh,82.31
2023-09-17T12:20:00,mfh,82.29
2023-09-17T12:21:00,mfh,82.90
2023-09-17T12:22:00,mfh,82.19
2023-09-17T12:23:00,mfh,82.25
2023-09-17T12:24:00,mfh,82.22
2023-09-17T12:25:00,mfh,81.83
2023-09-17T12:26:00,mfh,81.50
2023-09-17T12:27:00,mfh,81.03
2023-09-17T12:28:00,mfh,81.25
2023-09-17T12:29:00,mfh,81.68
2023-09-17T12:30:00,mfh,81.70
2023-09-17T12:31:00,mfh,81.71
2023-09-17T12:32:00,mfh,81.81
2023-09-17T12:33:00,mfh,81.72
2023-09-17T12:34:00,mfh,81.12
2023-09-17T12:35:00,mfh,82.28
2023-09-17T12:36:00,mfh,81.60
2023-09-17T12:37:00,mfh,81.59
2023-09-17T12:38:00,mfh,81.06
2023-09-17T12:39:00,mfh,81.56
2023-09-17T12:40:00,mfh,81.82
2023-09-17T12:41:00,mfh,81.38
2023-09-17T12:42:00,mfh,81.19
2023-09-17T12:43:00,mfh,80.99
2023-09-17T12:44:00,mfh,81.20
2023-09-17T12:45:00,mfh,81.52
2023-09-17T12:46:00,mfh,81.98
2023-09-17T12:47:00,mfh,81.47
2023-09-17T12:48:00,mfh,81.22
2023-09-17T12:49:00,mfh,81.29
2023-09-17T12:50:00,mfh,81.25
2023-09-17T12:51:00,mfh,81.93
2023-09-17T12:52:00,mfh,82.08
2023-09-17T12:53:00,mfh,81.56
2023-09-17T12:54:00,mfh,81.39
2023-09-17T12:55:00,mfh,81.69
2023-09-17T12:56:00,mfh,81.99
2023-09-17T12:57:00,mfh,82.05
2023-09-17T12:58:00,mfh,81.41
2023-09-17T12:59:00,mfh,80.77
2023-09-17T13:00:00,mfh,80.93
2023-09-17T13:01:00,mfh,81.45
2023-09-17T13:02:00,mfh,82.23
2023-09-17T13:03:00,mfh,82.28
2023-09-17T13:04:00,mfh,81.91
2023-09-17T13:05:00,mfh,82.07
2023-09-17T13:06:00,mfh,82.08
2023-09-17T13:07:00,mfh,82.17
2023-09-17T13:08:00,mfh,82.01
2023-09-17T13:09:00,mfh,82.38
2023-09-17T13:10:00,mfh,82.41
2023-09-17T13:11:00,mfh,82.42
2023-09-17T13:12:00,mfh,82.66
2023-09-17T13:13:00,mfh,82.94
2023-09-17T13:14:00,mfh,82.87
2023-09-17T13:15:00,mfh,81.58
2023-09-17T13:16:00,mfh,81.04
2023-09-17T13:17:00,mfh,81.28
2023-09-17T13:18:00,mfh,80.74